FW6280 Weather Reports


Display with metric or nautical units.
time (UTC)temp
F
wind
direction
speed
MPH
gust
MPH
rain 1hr
in
rain 24hr
in
rain mn
in
humidity
%
barometer
mb
20260508094517 51 178 0.0 0.0 0.00 0.00 0.00 88 1020.0
20260508093045 51 202 0.0 0.0 0.00 0.00 0.00 88 1019.9
20260508091507 51 202 0.0 0.0 0.00 0.00 0.00 88 1019.8
20260508090044 51 202 0.0 0.0 0.00 0.00 0.00 88 1019.9
20260508084606 51 202 0.0 0.0 0.00 0.00 0.00 88 1019.8
20260508083025 51 96 0.0 0.0 0.00 0.00 0.00 88 1019.5
20260508081539 51 94 0.0 0.0 0.00 0.00 0.00 88 1019.6
20260508080105 51 76 0.0 0.0 0.00 0.00 0.00 89 1019.4
20260508074527 51 79 0.0 0.0 0.00 0.00 0.00 89 1019.5
20260508073103 51 78 0.0 0.0 0.00 0.00 0.00 89 1019.5
20260508071518 51 75 0.0 0.0 0.00 0.00 0.00 89 1019.2
20260508070042 51 75 0.0 0.0 0.00 0.00 0.00 89 1019.2
20260508064529 51 77 0.0 0.0 0.00 0.00 0.00 89 1019.2
20260508063036 51 78 0.0 0.0 0.00 0.00 0.00 89 1019.3
20260508061604 52 360 0.0 0.0 0.00 0.00 0.00 89 1019.2
20260508060034 52 76 0.0 0.0 0.00 0.00 0.00 89 1019.1
20260508054558 52 78 0.0 0.0 0.00 0.00 0.00 90 1019.0
20260508053116 52 360 0.0 0.0 0.00 0.00 0.00 90 1019.0
20260508051528 52 40 0.0 0.0 0.00 0.00 0.00 90 1019.0
20260508050054 52 13 0.0 0.0 0.00 0.00 0.00 90 1019.1
20260508044515 51 11 0.0 0.0 0.00 0.00 0.00 90 1019.0
20260508043049 51 11 0.0 0.0 0.00 0.00 0.00 90 1019.1
20260508041505 51 311 0.0 0.0 0.00 0.00 0.00 89 1019.2
20260508040040 51 321 0.0 0.0 0.00 0.00 0.00 88 1019.1
20260508034605 51 360 0.0 0.0 0.00 0.00 0.00 87 1019.0
20260508033024 52 360 0.0 0.0 0.00 0.00 0.00 87 1018.7
20260508031603 52 360 0.0 0.0 0.00 0.00 0.00 86 1018.5
20260508030018 53 360 0.0 5.0 0.00 0.00 0.00 86 1018.4
20260508024545 53 360 1.0 9.0 0.00 0.00 0.00 85 1018.6
20260508023011 54 360 2.0 9.0 0.00 0.00 0.00 84 1018.5
20260508021537 54 360 4.0 11.0 0.00 0.00 0.00 84 1018.4
20260508014526 56 360 4.0 12.0 0.00 0.00 0.00 83 1018.3
20260508013041 56 360 4.0 12.0 0.00 0.00 0.00 83 1018.1
20260508011504 56 360 8.0 13.0 0.00 0.00 0.00 82 1018.3
20260508010037 56 360 7.0 12.0 0.00 0.00 0.00 82 1018.4
20260508004555 58 360 5.0 11.0 0.00 0.00 0.00 82 1018.3
20260508003002 57 360 9.0 14.0 0.00 0.00 0.00 81 1018.4
20260508001533 57 360 10.0 15.0 0.00 0.00 0.00 81 1018.5
20260508000119 59 360 4.0 15.0 0.00 0.00 0.00 80 1018.5
20260507234529 58 360 8.0 14.0 0.00 0.00 0.00 81 1018.5
20260507233035 57 319 8.0 14.0 0.00 0.00 0.00 81 1018.6
20260507231615 58 360 9.0 15.0 0.00 0.00 0.00 80 1018.7
20260507230023 59 360 5.0 15.0 0.00 0.00 0.00 81 1018.8
20260507224553 59 360 5.0 15.0 0.00 0.00 0.00 81 1019.1
20260507223016 58 360 9.0 15.0 0.00 0.00 0.00 79 1019.1
20260507221542 60 360 4.0 13.0 0.00 0.00 0.00 80 1019.0
20260507220006 60 360 5.0 13.0 0.00 0.00 0.00 81 1019.0
20260507214534 59 360 10.0 16.0 0.00 0.00 0.00 80 1019.2
20260507213102 60 360 5.0 17.0 0.00 0.00 0.00 81 1019.1
20260507211532 59 360 8.0 15.0 0.00 0.00 0.00 81 1019.2
20260507210052 59 360 9.0 16.0 0.00 0.00 0.00 82 1018.9
20260507204602 58 360 10.0 17.0 0.00 0.00 0.00 82 1019.1
20260507203022 58 360 9.0 17.0 0.00 0.00 0.00 82 1019.0
20260507201543 59 360 6.0 16.0 0.00 0.00 0.00 82 1018.9
20260507200005 59 360 6.0 15.0 0.00 0.00 0.00 81 1019.0
20260507194537 58 299 8.0 14.0 0.00 0.00 0.00 80 1019.1
20260507193102 59 360 8.0 13.0 0.00 0.00 0.00 80 1019.1
20260507191527 59 360 8.0 14.0 0.00 0.00 0.00 80 1019.1
20260507190037 60 360 4.0 13.0 0.00 0.00 0.00 80 1019.0
20260507184602 59 360 4.0 13.0 0.00 0.00 0.00 81 1019.2
20260507183025 59 360 5.0 12.0 0.00 0.00 0.00 82 1019.2
20260507181552 58 360 5.0 12.0 0.00 0.00 0.00 83 1019.4
20260507180015 56 360 3.0 9.0 0.00 0.00 0.00 84 1019.5
20260507174604 55 61 0.0 9.0 0.00 0.00 0.00 85 1019.5
20260507173008 55 360 3.0 12.0 0.00 0.00 0.00 87 1019.6
20260507171542 54 360 4.0 8.0 0.00 0.00 0.00 87 1019.7
20260507164526 53 360 4.0 8.0 0.00 0.00 0.00 87 1019.5
20260507163052 53 360 2.0 8.0 0.00 0.00 0.00 87 1019.6
20260507161602 53 360 5.0 11.0 0.00 0.00 0.00 87 1019.6
20260507160023 53 360 3.0 8.0 0.00 0.00 0.00 88 1019.7
20260507154548 53 360 4.0 8.0 0.00 0.00 0.00 88 1019.6
20260507153017 52 360 4.0 9.0 0.00 0.00 0.00 89 1019.8
20260507151539 52 360 0.0 1.0 0.00 0.00 0.00 89 1019.7
20260507150003 52 360 0.0 0.0 0.00 0.00 0.00 89 1019.6
20260507144530 52 49 0.0 0.0 0.00 0.00 0.00 90 1019.7
20260507143113 52 360 0.0 0.0 0.00 0.00 0.00 90 1019.7
20260507141523 52 360 0.0 0.0 0.00 0.00 0.00 90 1019.5
20260507140109 51 360 0.0 0.0 0.00 0.00 0.00 90 1019.4
20260507134513 51 360 0.0 0.0 0.00 0.00 0.00 90 1019.3
20260507133042 51 360 0.0 0.0 0.00 0.00 0.00 90 1019.3
20260507131505 51 360 0.0 4.0 0.00 0.00 0.00 90 1019.2
20260507130034 51 360 0.0 5.0 0.00 0.00 0.00 90 1019.3
20260507124605 51 360 0.0 4.0 0.00 0.00 0.00 90 1019.3
20260507123035 51 360 1.0 4.0 0.00 0.00 0.00 90 1019.4
20260507121558 52 360 0.0 8.0 0.00 0.00 0.00 90 1019.5
20260507120029 52 360 2.0 6.0 0.00 0.00 0.00 89 1019.6
20260507114548 52 19 3.0 6.0 0.00 0.00 0.00 89 1019.8
20260507113028 52 360 3.0 9.0 0.00 0.00 0.00 89 1019.8
20260507111541 52 360 1.0 5.0 0.00 0.00 0.00 89 1019.9
20260507110002 52 360 3.0 9.0 0.00 0.00 0.00 89 1019.9
20260507104528 52 78 1.0 5.0 0.00 0.00 0.00 89 1020.0
20260507103056 52 360 0.0 3.0 0.00 0.00 0.00 88 1020.0
20260507101523 52 360 2.0 6.0 0.00 0.00 0.00 88 1020.2
20260507100042 52 40 2.0 11.0 0.00 0.00 0.00 89 1020.2